Regional Weather Roundup
Issued by NWS

Home | Current Version | Previous Version | Graphics & Text | Print | Product List | Glossary On
Versions: 1 2 3 4 5 6 7 8 9 10 11 12 13 14 15 16 17 18 19 20 21 22 23 24 25 26 27 28 29 30 31 32 33 34 35 36 37 38 39 40 41 42 43 44 45 46 47 48 49 50
000
ASUS43 KMKX 222100
RWRWI

WISCONSIN REGIONAL WEATHER ROUNDUP
NATIONAL WEATHER SERVICE MILWAUKEE/SULLIVAN WI
400 PM CDT SAT APR 22 2017

NOTE: "FAIR" INDICATES FEW OR NO CLOUDS BELOW 12,000 FEET WITH NO
SIGNIFICANT WEATHER AND/OR OBSTRUCTIONS TO VISIBILITY.

WIZ001-002-006>008-014>016-023>028-222200-
NORTHWEST WISCONSIN

CITY           SKY/WX    TMP DP  RH WIND       PRES   REMARKS
SUPERIOR ARPT  SUNNY     69  37  30 W20G26    30.07F
ASHLAND        SUNNY     71  31  22 W13       30.05F
HAYWARD        SUNNY     66  29  24 SW15G23   30.10F
SIREN          SUNNY     67  32  27 W10G21    30.13F
CUMBERLAND     SUNNY     64  32  29 W16       30.13F
RICE LAKE      SUNNY     66  30  26 SW10G17   30.16F
CHETEK         SUNNY     66  33  29 CALM      30.14F
LADYSMITH      SUNNY     65  32  28 W6        30.15F
EAU CLAIRE     SUNNY     66  29  24 VRB6G18   30.14F
MENOMONIE      SUNNY     67  30  25 W7        30.16F
NEW RICHMOND   SUNNY     67  28  23 W9G20     30.16F
OSCEOLA        SUNNY     68  35  29 SW13      30.17F
$$

WIZ003>005-009-010-017-018-222200-
NORTH CENTRAL WISCONSIN

CITY           SKY/WX    TMP DP  RH WIND       PRES   REMARKS
MANITOWISH WTR SUNNY     65  27  23 W14G22    30.09F
ARBOR VITAE    SUNNY     65  25  22 W13G24    30.10F
WOODRUFF       SUNNY     65  25  22 W13G24    30.10F
RHINELANDER    SUNNY     66  27  23 W12       30.11F
EAGLE RIVER    SUNNY     65  22  19 W13       30.09F
LAND O LAKES   SUNNY     66  25  21 SW14      30.10F
PHILLIPS       SUNNY     64  31  28 W8G16     30.11F
TOMAHAWK       SUNNY     64  27  24 W9        30.13F
MEDFORD        SUNNY     60  33  36 SW12G18   30.14F
MERRILL        SUNNY     64  29  27 SW9G16    30.13F
$$

WIZ029-030-035-036-043>047-222200-
CENTRAL WISCONSIN

CITY           SKY/WX    TMP DP  RH WIND       PRES   REMARKS
WAUSAU         MOSUNNY   63  31  30 W12       30.13F
MOSINEE        MOSUNNY   63  30  29 W10G17    30.15F
MARSHFIELD     CLOUDY    63  27  25 W8        30.14F
STEVENS POINT  SUNNY     62  27  27 W7        30.16F
WAUPACA        SUNNY     67  18  15 NW5       30.16F
WAUTOMA        SUNNY     64  22  20 W8        30.15F
WISC RAPIDS    SUNNY     65  25  22 VRB6      30.16F
CAMP DOUGLAS   NOT AVBL
$$

WIZ011>013-019>022-031-037>040-048>050-222200-
NORTHEAST WISCONSIN

CITY           SKY/WX    TMP DP  RH WIND       PRES   REMARKS
ANTIGO         SUNNY     62  32  31 W7        30.13F
SHAWANO        SUNNY     67  25  20 SW6       30.14F
OCONTO         SUNNY     61  28  28 S13       30.13F
STURGEON BAY   SUNNY     61  26  26 SW3       30.14F
GREEN BAY      SUNNY     63  33  32 SW8       30.14F
MANITOWOC      NOT AVBL
APPLETON       MOSUNNY   63  21  20 VRB5      30.14F
CLINTONVILLE   SUNNY     64  27  24 S6        30.14F
OSHKOSH        SUNNY     60  32  34 E5        30.16F
$$

WIZ032>034-041-042-053>061-222200-
SOUTHWEST WISCONSIN

CITY           SKY/WX    TMP DP  RH WIND       PRES   REMARKS
LA CROSSE      SUNNY     67  21  17 NW3       30.17F
SPARTA         SUNNY     65  29  25 W7        30.18F
VIROQUA        SUNNY     64  28  26 N5        30.18F
BOSCOBEL       SUNNY     67  23  19 VRB3      30.16F
PRAIRIE DU CHI SUNNY     64  19  17 W9        30.17F
PLATTEVILLE    SUNNY     62  31  30 CALM      30.18F
$$

WIZ056-057-062-063-064-067-068-222200-
SOUTH CENTRAL WISCONSIN

CITY           SKY/WX    TMP DP  RH WIND       PRES   REMARKS
REEDSBURG      SUNNY     63  27  25 NW6       30.17F
BARABOO/DELLS  SUNNY     63  21  20 NE3       30.17F
LONE ROCK      NOT AVBL
MINERAL POINT  SUNNY     63  23  22 CALM      30.17F
MADISON        MOSUNNY   62  27  26 CALM      30.16F
MIDDLETON      SUNNY     63  28  26 CALM      30.18F
WATERTOWN      SUNNY     60  28  29 CALM      30.16F
MONROE         SUNNY     61  28  29 CALM      30.17F
JANESVILLE     MOSUNNY   64  25  22 NE12      30.15F
$$

WIZ051-052-058>065-066-070>072-222200-
SOUTHEAST WISCONSIN

CITY           SKY/WX    TMP DP  RH WIND       PRES   REMARKS
MILWAUKEE      MOSUNNY   57  25  29 E8        30.19F
WAUKESHA       SUNNY     59  25  27 NE5       30.18F
MILWAUKEE/TIMM SUNNY     57  12  17 E7        30.18F
RACINE         SUNNY     56  23  27 NE7       30.20F
KENOSHA        SUNNY     58  24  27 NE9       30.18F
FOND DU LAC    SUNNY     62  30  29 VRB5      30.16F
SHEBOYGAN      SUNNY     59  29  31 VRB5      30.16F
WEST BEND      SUNNY     61  28  29 S3        30.16F
JUNEAU         SUNNY     60  29  31 NE3       30.18F
$$

LSZ147-162-222200-
LAKE SUPERIOR

STATION/POSITION TIME  TEMP    WIND        PRES    WAVE
                       AIR SEA DIR/SP/G            HT/PER
                 (UTC) (F)     (DEG/KT/KT) (MB)    (FT/S)
DEVILS ISLAND    2000   55     230/ 17/ 21 1017.8F
PORT WING        2040   64     250/ 12/ 16 1017.9F
SAXON HARBOR     2040   68     240/ 13/ 21 1017.3F
$$

LMZ867-665-643>646-222200-
LAKE MICHIGAN

STATION/POSITION TIME  TEMP    WIND        PRES    WAVE
                       AIR SEA DIR/SP/G            HT/PER
                 (UTC) (F)     (DEG/KT/KT) (MB)    (FT/S)
CHAMBERS ISLAND  2040   58     170/  6/ 13 1019.6F
N MID LAKE BUOY  1950   40 37  180/  8/ 10 1022.6F   0
NORTHPORT PIER   2040   51     160/  9/ 13 1020.0F
KEWAUNEE LAKESHO 2030   45     170/ 11/ 12 1021.3F
SHEBOYGAN LAKESH 2000   45     120/  8/  9 1022.3F
PORT WASHINGTON  2030   49     120/  3/  4 1023.0F
MILWAUKEE LAKESH 2030   48      90/  2/  3   N/A
KENOSHA   LAKESH 2000   46      40/ 10/ 11 1022.7
$$

TC  - TEMPERATURE IN CELSIUS
VSB - VISIBILITY IN STATUTE MILES
WCI - WIND CHILL INDEX
HX  - HEAT INDEX





USA.gov is the U.S. government's official web portal to all federal, state and local government web resources and services.